www.pogodaiklimat.ru

Погода и климат >> Архив погоды >> Бразилия >> Esperantina


ПОГОДА в Esperantina

  • Прогноз погоды в Esperantina
  • Монитор погоды в Esperantina
  • Климат города

АРХИВ ПОГОДЫ в Esperantina

Время (UTC), дата Ветер
(напр.,м/с)
 
Видим.   Явления Облачность Т
(С)
Тd
(С)
f
(%)
Тe
(С)
Тes
(С)
Комфортность P
(гПа)
Po
(гПа)
Тmin
(С)
Tmax
(С)
R
(мм)
R24
(мм)
S
(см)
13 9.07 штиль 0 н/о н/о +29.3 +21.9 64 +38 +38 очень
душно
1015.1 1005.1
14 9.07 штиль 0 н/о н/о +29.1 +22.4 67 +38 +38 очень
душно
1014.6 1004.6
15 9.07 штиль 0 н/о н/о +31.5 +22.2 58 +41 +41 опасность
перегрева
1013.9 1003.9
17 9.07 штиль 0
{3}
н/о н/о +32.4 +19.4 46 +38 +38 очень
душно
1012.1 1002.2
16 9.07 штиль 0
{2}
н/о н/о +31.6 +20.0 50 +38 +38 очень
душно
1012.9 1003.0
18 9.07 штиль 0
{3}
н/о н/о +32.1 +20.2 49 +38 +38 очень
душно
1011.5 1001.6
19 9.07 штиль 0
{1}
н/о н/о +32.8 +19.6 46 +39 +39 очень
душно
1011.6 1001.7
20 9.07 штиль 0 н/о н/о +31.4 +20.1 51 +38 +38 очень
душно
1012.0 1002.1
21 9.07 штиль 0 н/о н/о +28.3 +22.4 70 +37 +37 очень
душно
1012.5 1002.4
23 9.07 штиль 0 н/о н/о +26.9 +21.4 72 +34 +34 очень
душно
1013.3 1003.2
22 9.07 штиль 0 н/о н/о +27.4 +21.4 70 +35 +35 очень
душно
1012.8 1002.7
00 10.07 штиль 0 н/о н/о +26.2 +21.8 77 +34 +34 очень
душно
1014.3 1004.2
01 10.07 штиль 0
{3}
н/о н/о +25.6 +22.8 85 +34 +34 очень
душно
1015.2 1005.0
02 10.07 штиль 0 н/о н/о +24.8 +22.9 89 +33 +33 очень
душно
1015.3 1005.1
03 10.07 штиль 0
{2}
н/о н/о +24.6 +23.1 91 +33 +33 очень
душно
1015.0 1004.8
05 10.07 штиль 0 н/о н/о +24.3 +23.0 92 +32 +32 очень
душно
1014.2 1004.0
04 10.07 штиль 0 н/о н/о +24.4 +23.1 92 +32 +32 очень
душно
1014.6 1004.4
06 10.07 штиль 0
{1}
н/о н/о +24.4 +22.8 91 +32 +32 очень
душно
1013.9 1003.7
07 10.07 С 1
{3}
н/о н/о +22.7 +20.0 85 +29 +29 очень
душно
1014.0 1003.7
08 10.07 штиль 0
{2}
н/о н/о +22.3 +20.4 89 +29 +29 очень
душно
1014.6 1004.3
09 10.07 штиль 0
{1}
н/о н/о +22.8 +21.1 90 +30 +30 очень
душно
1015.3 1005.0
11 10.07 С 1
{3}
н/о н/о +25.6 +22.1 81 +33 +33 очень
душно
1016.6 1006.4
10 10.07 штиль 0
{2}
н/о н/о +24.1 +22.0 88 +31 +31 очень
душно
1015.9 1005.7
12 10.07 СВ 1
{3}
н/о н/о +27.8 +22.6 73 +37 +37 очень
душно
1016.9 1006.8
13 10.07 штиль 0
{3}
н/о н/о +29.4 +22.5 66 +38 +38 очень
душно
1016.9 1006.8
14 10.07 штиль 0
{2}
н/о н/о +30.0 +21.8 62 +39 +39 очень
душно
1016.4 1006.4
15 10.07 штиль 0
{2}
н/о н/о +30.7 +21.0 56 +38 +38 очень
душно
1016.0 1006.0
17 10.07 штиль 0 н/о н/о +30.1 +21.3 59 +38 +38 очень
душно
1014.3 1004.3
16 10.07 штиль 0
{2}
н/о н/о +29.9 +21.2 60 +38 +38 очень
душно
1015.1 1005.1
18 10.07 штиль 0 н/о н/о +30.5 +20.2 54 +37 +37 очень
душно
1013.6 1003.6
19 10.07 С 1
{3}
н/о н/о +28.5 +23.4 74 +39 +39 очень
душно
1013.9 1003.8
20 10.07 штиль 0
{3}
н/о н/о +27.6 +23.0 76 +37 +37 очень
душно
1013.8 1003.7
21 10.07 штиль 0
{2}
н/о н/о +26.7 +22.4 77 +35 +35 очень
душно
1014.5 1004.4
23 10.07 штиль 0
{1}
н/о н/о +25.4 +22.5 84 +33 +33 очень
душно
1015.8 1005.6
22 10.07 штиль 0
{2}
н/о н/о +25.7 +22.5 83 +34 +34 очень
душно
1014.8 1004.6
00 11.07 штиль 0
{1}
н/о н/о +24.7 +22.5 88 +32 +32 очень
душно
1016.3 1006.1
01 11.07 штиль 0 н/о н/о +24.3 +22.3 89 +32 +32 очень
душно
1016.6 1006.4
02 11.07 С 1
{2}
н/о н/о +23.8 +22.2 91 +31 +31 очень
душно
1016.2 1006.0
03 11.07 С 1
{2}
н/о н/о +23.6 +21.6 89 +30 +30 очень
душно
1016.1 1005.9
05 11.07 штиль 0
{2}
н/о н/о +22.3 +20.1 87 +28 +28 душно 1015.3 1005.0
04 11.07 С 1
{2}
н/о н/о +22.9 +20.8 88 +30 +30 очень
душно
1015.9 1005.6
06 11.07 С 1
{1}
н/о н/о +21.9 +20.1 90 +28 +28 душно 1015.2 1004.9
07 11.07 С 1
{2}
н/о н/о +21.7 +20.0 90 +27 +27 душно 1015.2 1004.9
08 11.07 штиль 0
{2}
н/о н/о +21.1 +19.7 92 +26 +26 душно 1015.3 1005.0
09 11.07 штиль 0
{1}
н/о н/о +20.7 +19.5 93 +25 +25 комфорт 1015.4 1005.1
11 11.07 СВ 1
{2}
н/о н/о +26.1 +20.9 73 +33 +33 очень
душно
1016.4 1006.2
10 11.07 штиль 0
{1}
н/о н/о +22.3 +20.5 90 +29 +29 очень
душно
1015.9 1005.6
12 11.07 СВ 1
{3}
н/о н/о +28.8 +20.2 60 +35 +35 очень
душно
1016.6 1006.5
13 11.07 В 1
{4}
н/о н/о +30.8 +20.2 53 +37 +37 очень
душно
1016.7 1006.7
14 11.07 СВ 1
{4}
н/о н/о +31.1 +20.5 53 +38 +38 очень
душно
1016.5 1006.5
15 11.07 СВ 1
{3}
н/о н/о +31.3 +19.1 48 +37 +37 очень
душно
1015.8 1005.8
17 11.07 В 1
{3}
н/о н/о +32.4 +18.9 45 +38 +38 очень
душно
1014.1 1004.2
16 11.07 штиль 0
{3}
н/о н/о +31.8 +19.7 49 +38 +38 очень
душно
1015.1 1005.1
18 11.07 штиль 0
{3}
н/о н/о +30.5 +19.6 52 +36 +36 очень
душно
1013.5 1003.5
19 11.07 штиль 0
{2}
н/о н/о +32.2 +18.5 44 +37 +37 очень
душно
1012.9 1003.0
20 11.07 штиль 0 н/о н/о +31.3 +18.2 46 +36 +36 очень
душно
1013.0 1003.0
21 11.07 штиль 0 н/о н/о +27.9 +21.0 66 +35 +35 очень
душно
1013.3 1003.2
23 11.07 С 1
{3}
н/о н/о +25.3 +21.3 79 +32 +32 очень
душно
1015.0 1004.8
22 11.07 С 1
{3}
н/о н/о +26.3 +21.3 74 +33 +33 очень
душно
1014.0 1003.9
00 12.07 штиль 0
{2}
н/о н/о +24.2 +21.1 83 +31 +31 очень
душно
1015.9 1005.7
01 12.07 штиль 0 н/о н/о +23.5 +21.1 86 +30 +30 очень
душно
1016.6 1006.3
02 12.07 штиль 0 н/о н/о +22.8 +20.9 89 +30 +30 очень
душно
1016.8 1006.5
03 12.07 штиль 0 н/о н/о +22.0 +20.7 92 +28 +28 душно 1016.5 1006.2
05 12.07 штиль 0 н/о н/о +22.0 +20.7 92 +28 +28 душно 1015.4 1005.1
04 12.07 штиль 0 н/о н/о +22.4 +21.0 92 +29 +29 очень
душно
1016.0 1005.7
06 12.07 штиль 0 н/о н/о +21.0 +19.8 93 +26 +26 душно 1015.3 1005.0
07 12.07 штиль 0 н/о н/о +20.9 +19.9 94 +25 +25 комфорт 1015.2 1004.9
08 12.07 штиль 0 н/о н/о +20.2 +19.3 95 +24 +24 комфорт 1015.6 1005.2
09 12.07 штиль 0 н/о н/о +19.7 +18.9 95 +22 +22 комфорт 1016.1 1005.7
11 12.07 штиль 0 н/о н/о +25.1 +20.7 77 +31 +31 очень
душно
1017.1 1006.9
10 12.07 штиль 0 н/о н/о +21.4 +20.6 95 +27 +27 душно 1016.5 1006.2
12 12.07 штиль 0 н/о н/о +27.2 +20.4 66 +34 +34 очень
душно
1017.3 1007.2
13 12.07 штиль 0
{3}
н/о н/о +29.9 +20.7 58 +37 +37 очень
душно
1017.1 1007.1
14 12.07 штиль 0
{2}
н/о н/о +30.5 +19.2 51 +36 +36 очень
душно
1016.4 1006.4
15 12.07 ЮВ 1
{4}
н/о н/о +32.4 +19.5 47 +38 +38 очень
душно
1015.5 1005.6
17 12.07 штиль 0
{3}
н/о н/о +33.3 +19.0 43 +38 +38 очень
душно
1013.4 1003.5
16 12.07 ЮВ 1
{4}
н/о н/о +33.5 +19.0 42 +38 +38 очень
душно
1014.6 1004.7
18 12.07 штиль 0 н/о н/о +33.8 +18.3 40 +38 +38 очень
душно
1012.6 1002.7
19 12.07 штиль 0 н/о н/о +32.8 +19.0 44 +38 +38 очень
душно
1012.5 1002.6
20 12.07 штиль 0 н/о н/о +31.9 +20.4 51 +39 +39 очень
душно
1012.5 1002.6
21 12.07 штиль 0 н/о н/о +28.9 +21.9 66 +37 +37 очень
душно
1012.9 1002.9
23 12.07 штиль 0
{2}
н/о н/о +25.2 +22.5 85 +33 +33 очень
душно
1014.9 1004.7
22 12.07 штиль 0
{3}
н/о н/о +25.3 +21.8 81 +33 +33 очень
душно
1014.4 1004.2
00 13.07 штиль 0
{2}
н/о н/о +25.1 +22.6 86 +33 +33 очень
душно
1015.7 1005.5
01 13.07 штиль 0 н/о н/о +24.8 +22.5 87 +32 +32 очень
душно
1016.1 1005.9
02 13.07 штиль 0
{1}
н/о н/о +24.3 +22.4 89 +32 +32 очень
душно
1016.0 1005.8
03 13.07 штиль 0
{1}
н/о н/о +24.2 +22.5 90 +32 +32 очень
душно
1015.8 1005.6
05 13.07 штиль 0 н/о н/о +23.6 +22.3 92 +31 +31 очень
душно
1014.9 1004.7
04 13.07 штиль 0
{1}
н/о н/о +23.9 +22.4 91 +31 +31 очень
душно
1015.4 1005.2
06 13.07 штиль 0 н/о н/о +23.0 +21.8 93 +31 +31 очень
душно
1014.6 1004.3
07 13.07 штиль 0 н/о н/о +22.3 +21.2 93 +29 +29 очень
душно
1014.8 1004.5
08 13.07 штиль 0 н/о н/о +22.0 +21.1 95 +28 +28 душно 1015.2 1004.9
09 13.07 штиль 0 н/о н/о +22.1 +21.1 94 +29 +29 очень
душно
1015.5 1005.2
11 13.07 штиль 0 н/о н/о +24.1 +22.4 90 +31 +31 очень
душно
1016.8 1006.6
10 13.07 штиль 0 н/о н/о +22.8 +21.8 94 +31 +31 очень
душно
1016.1 1005.8
12 13.07 штиль 0 н/о н/о +27.8 +22.4 72 +36 +36 очень
душно
1017.0 1006.9
13 13.07 штиль 0 н/о н/о +30.3 +21.3 59 +38 +38 очень
душно
1016.7 1006.7
14 13.07 штиль 0
{3}
н/о н/о +30.1 +20.8 58 +37 +37 очень
душно
1016.1 1006.1
15 13.07 Ю 1
{3}
н/о н/о +30.6 +20.9 56 +38 +38 очень
душно
1015.3 1005.3
17 13.07 штиль 0
{3}
н/о н/о +33.3 +19.3 44 +39 +39 очень
душно
1013.0 1003.1
16 13.07 штиль 0
{2}
н/о н/о +32.1 +19.7 48 +38 +38 очень
душно
1014.1 1004.2
18 13.07 штиль 0
{2}
н/о н/о +33.2 +19.3 44 +39 +39 очень
душно
1012.1 1002.2
19 13.07 штиль 0
{3}
н/о н/о +32.9 +19.2 44 +38 +38 очень
душно
1011.7 1001.8
20 13.07 штиль 0
{2}
н/о н/о +31.7 +19.7 49 +38 +38 очень
душно
1011.7 1001.8
21 13.07 штиль 0 н/о н/о +28.3 +21.6 67 +36 +36 очень
душно
1011.8 1001.8
23 13.07 штиль 0 н/о н/о +24.9 +20.7 78 +31 +31 очень
душно
1013.4 1003.2
22 13.07 штиль 0 н/о н/о +25.8 +21.4 77 +33 +33 очень
душно
1012.2 1002.1
00 14.07 штиль 0
{2}
н/о н/о +25.1 +21.2 79 +32 +32 очень
душно
1014.8 1004.6
01 14.07 штиль 0
{3}
н/о н/о +24.4 +21.9 86 +31 +31 очень
душно
1015.3 1005.1
02 14.07 С 1
{2}
н/о н/о +24.0 +22.1 89 +31 +31 очень
душно
1015.2 1005.0
03 14.07 С 1
{2}
н/о н/о +23.7 +21.7 89 +30 +30 очень
душно
1014.9 1004.7
05 14.07 штиль 0
{1}
н/о н/о +22.5 +21.0 91 +29 +29 очень
душно
1014.2 1003.9
04 14.07 штиль 0
{2}
н/о н/о +23.4 +21.5 89 +32 +32 очень
душно
1014.6 1004.4
06 14.07 штиль 0 н/о н/о +21.9 +20.7 93 +28 +28 душно 1014.0 1003.7
07 14.07 штиль 0 н/о н/о +21.3 +20.3 94 +26 +26 душно 1014.5 1004.2
08 14.07 штиль 0 н/о н/о +20.7 +19.8 95 +25 +25 комфорт 1015.0 1004.7
09 14.07 штиль 0 н/о н/о +20.4 +19.5 95 +24 +24 комфорт 1015.6 1005.2
11 14.07 ЮВ 1
{2}
н/о н/о +24.7 +21.7 83 +32 +32 очень
душно
1016.6 1006.4
10 14.07 штиль 0
{2}
н/о н/о +22.5 +21.6 95 +30 +30 очень
душно
1016.2 1005.9
12 14.07 ЮВ 1
{2}
н/о н/о +27.6 +21.6 70 +35 +35 очень
душно
1017.0 1006.9
13 14.07 штиль 0
{2}
н/о н/о +29.5 +19.9 56 +36 +36 очень
душно
1016.9 1006.8
14 14.07 штиль 0
{3}
н/о н/о +31.3 +19.6 50 +37 +37 очень
душно
1016.3 1006.3
15 14.07 ЮВ 1
{3}
н/о н/о +31.0 +19.6 51 +37 +37 очень
душно
1015.6 1005.6
17 14.07 штиль 0
{1}
н/о н/о +32.0 +18.6 45 +37 +37 очень
душно
1013.3 1003.4
16 14.07 штиль 0
{3}
н/о н/о +32.6 +19.8 47 +39 +39 очень
душно
1014.4 1004.5
18 14.07 штиль 0 н/о н/о +33.6 +17.6 39 +37 +37 очень
душно
1012.5 1002.6
19 14.07 штиль 0 н/о н/о +32.2 +18.2 43 +37 +37 очень
душно
1012.1 1002.2
20 14.07 штиль 0
{1}
н/о н/о +31.7 +19.4 48 +37 +37 очень
душно
1012.0 1002.1
21 14.07 штиль 0
{1}
н/о н/о +28.3 +21.3 66 +36 +36 очень
душно
1012.7 1002.6
23 14.07 штиль 0
{1}
н/о н/о +26.7 +20.6 69 +33 +33 очень
душно
1014.0 1003.9
22 14.07 штиль 0
{1}
н/о н/о +27.0 +20.8 69 +34 +34 очень
душно
1013.3 1003.2
01 15.07 штиль 0 н/о н/о +24.6 +21.5 83 +31 +31 очень
душно
1015.6 1005.4
02 15.07 штиль 0 н/о н/о +24.6 +21.7 84 +31 +31 очень
душно
1015.8 1005.6
03 15.07 штиль 0 н/о н/о +24.1 +21.6 86 +31 +31 очень
душно
1015.7 1005.5
05 15.07 штиль 0 н/о н/о +22.5 +20.8 90 +29 +29 очень
душно
1014.8 1004.5
04 15.07 штиль 0 н/о н/о +23.2 +21.3 89 +31 +31 очень
душно
1015.2 1004.9
06 15.07 штиль 0 н/о н/о +22.0 +20.2 90 +28 +28 душно 1014.4 1004.1
07 15.07 штиль 0 н/о н/о +21.5 +19.8 90 +27 +27 душно 1014.3 1004.0
08 15.07 штиль 0 н/о н/о +21.0 +19.5 91 +25 +25 комфорт 1014.6 1004.3
09 15.07 штиль 0 н/о н/о +20.7 +19.3 92 +25 +25 комфорт 1014.7 1004.4
11 15.07 штиль 0 н/о н/о +25.5 +20.0 72 +31 +31 очень
душно
1015.9 1005.7
10 15.07 штиль 0 н/о н/о +21.8 +19.7 88 +27 +27 душно 1015.4 1005.1
12 15.07 штиль 0 н/о н/о +27.6 +20.1 64 +34 +34 очень
душно
1016.1 1006.0
13 15.07 штиль 0 н/о н/о +29.2 +18.7 53 +34 +34 очень
душно
1016.2 1006.1
14 15.07 штиль 0 н/о н/о +30.5 +18.7 49 +35 +35 очень
душно
1015.9 1005.9
15 15.07 штиль 0
{2}
н/о н/о +31.4 +18.2 45 +36 +36 очень
душно
1015.2 1005.2
17 15.07 штиль 0
{2}
н/о н/о +32.8 +19.3 45 +38 +38 очень
душно
1013.2 1003.3
16 15.07 штиль 0
{2}
н/о н/о +32.0 +17.5 42 +36 +36 очень
душно
1014.1 1004.2
18 15.07 штиль 0
{2}
н/о н/о +32.6 +17.8 41 +37 +37 очень
душно
1012.7 1002.8
19 15.07 штиль 0
{2}
н/о н/о +32.0 +17.5 42 +36 +36 очень
душно
1012.5 1002.6
20 15.07 штиль 0
{1}
н/о н/о +30.5 +20.1 54 +37 +37 очень
душно
1012.8 1002.8
21 15.07 штиль 0
{1}
н/о н/о +29.0 +21.3 63 +37 +37 очень
душно
1013.0 1003.0
23 15.07 штиль 0 н/о н/о +27.0 +21.3 71 +34 +34 очень
душно
1014.0 1003.9
22 15.07 штиль 0 н/о н/о +28.0 +20.5 64 +35 +35 очень
душно
1013.5 1003.4
01 16.07 штиль 0
{2}
н/о н/о +25.5 +22.6 84 +34 +34 очень
душно
1015.6 1005.4
02 16.07 штиль 0
{1}
н/о н/о +25.1 +22.7 87 +33 +33 очень
душно
1015.7 1005.5
03 16.07 штиль 0
{1}
н/о н/о +24.2 +22.1 88 +31 +31 очень
душно
1015.4 1005.2
05 16.07 штиль 0 н/о н/о +23.2 +21.7 91 +31 +31 очень
душно
1014.8 1004.6
04 16.07 штиль 0
{1}
н/о н/о +23.6 +21.9 90 +30 +30 очень
душно
1015.3 1005.1
06 16.07 штиль 0
{1}
н/о н/о +23.1 +20.9 87 +31 +31 очень
душно
1014.8 1004.5
07 16.07 штиль 0
{1}
н/о н/о +22.9 +20.6 87 +30 +30 очень
душно
1014.8 1004.5
08 16.07 штиль 0 н/о н/о +22.8 +20.2 85 +29 +29 очень
душно
1015.3 1005.0
09 16.07 штиль 0 н/о н/о +22.5 +20.1 86 +29 +29 очень
душно
1015.8 1005.5
11 16.07 штиль 0 н/о н/о +24.7 +20.5 77 +31 +31 очень
душно
1017.0 1006.8
10 16.07 штиль 0 н/о н/о +23.0 +20.5 86 +30 +30 очень
душно
1016.4 1006.1

 

Местоположение метеостанции Esperantina (Бразилия): широта -3.90 долгота -42.27 высота над уровнем моря 67 м.

В архиве по умолчанию представлена погода в Esperantina за последнюю неделю. Архивные данные за месяц целиком и за предыдущие месяцы, начиная с января 2011 года, Вы можете получить, выбрав интересующий диапазон дат из раскрывающегося списка и нажав кнопку "Ввод!".


*Определитесь, кто Вы:
робот инопланетянин человек

Внимание! Время в таблицах - всемирное. Для получения местного времени необходимо прибавить поправку, которая в Esperantina равна -3 ч.

Смотрите также архив погоды в соседних городах и на ближайших метеорологических станциях:

Погода в Piripiri (Бразилия) (67 км)
Погода в Parnaiba (Бразилия) (106 км)
Погода в Parnaiba (Бразилия) (107 км)
Погода в Chapadinha (Бразилия) (121 км)
Погода в Teresina (Бразилия) (140 км)
Погода в Teresina (Бразилия) (141 км)
Погода в Caxias (Бразилия) (158 км)
Погода в Caxias (Бразилия) (161 км)
Погода в Castelo do Piaui (Бразилия) (181 км)
Погода в Sobral (Бразилия) (214 км)

Пояснения к столбцам:

Ветер - указаны скорость ветра в м/с - средняя за 10 мин, порывы в срок и между сроками (в фигурных скобках) и направление, откуда дует ветер: С - северный, СВ - северо-восточный, В - восточный, ЮВ - юго-восточный, Ю - южный, ЮЗ - юго-западный, З - западный, СЗ - северо-западный.
Видимость - горизонтальная дальность видимости в метрах или километрах. При видимости от 1 до 10 км при отсутствии осадков обычно наблюдается дымка, при ухудшении видимости до 1 км и менее - туман. В сухую погоду видимость может ухудшаться дымом, пылью или мглою.
Явления - указаны атмосферные явления, наблюдавшиеся в срок или в последний час перед сроком; фигурными скобками обозначены явления, наблюдавшиеся между сроками (за 1-3 часа до срока); квадратными скобками обозначены град или гололедные отложения с указанием их диаметра в мм.
Облачность - указаны через наклонную черту общая и нижняя облачность в баллах и высота нижней границы облаков в метрах; квадратными скобками обозначены формы облаков: Ci - перистые, Cs - перисто-слоистые, Cc - перисто-кучевые, Ac - высококучевые, As - высокослоистые, Sc - слоисто-кучевые, Ns - слоисто-дождевые, Cu - кучевые, Cb - кучево-дождевые. Подробнее классификацию облаков см. в Атласе облаков (PDF).
T - Температура воздуха - температура, измеренная на высоте 2 м над землей.
Td - Температура точки росы - температура, при понижении до которой содержащийся в воздухе водяной пар достигнет насыщения.
f - Относительная влажность воздуха - влажноcть воздуха, измеренная на высоте 2 м над землей.
Te - Эффективная температура - температура, которую ощущает одетый по сезону человек в тени. Характеристика душности погоды. При расчете учитывается влияние влажности воздуха и скорости ветра на теплоощущения человека.
Tes - Эффективная температура на солнце - температура, которую ощущает человек, с поправкой на солнечный нагрев. Характеристика знойности погоды. Зависит от высоты солнца над горизонтом, облачности и скорости ветра. Ночью, в пасмурную погоду, а также при ветре 12 м/с и более поправка равна нулю.
P - Атмосферное давление - приведенное к уровню моря атмосферное давление.
Po - Атмосферное давление - измеренное на уровне метеостанции атмосферное давление.
Tmin - Минимальная температура - минимум температуры воздуха на высоте 2 м над землей.
Tmax - Максимальная температура - максимум температуры воздуха на высоте 2 м над землей.
R - Количество осадков - Количество выпавших осадков за период времени, мм. При наведении курсора мыши на число - период времени, за который выпало указанное количество осадков.
R24 - Количество осадков - Количество выпавших осадков за 24 часа, мм.
S - Снежный покров - Высота снежного покрова, см. При наведении курсора мыши на число - состояние снежного покрова и степень покрытия местности в баллах.